RH
42 36 35 29 40 48 42 37 30 28 28 25 25 26 28 29 33 41 55 61 58 64 79 76 72 84 95 96 92 74 72 73 83 80 81 92 83 73 80 83 82 80 77 80 75 79 91 91 84
44 37 32 48 48 46 41 33 31 26 24 25 28 30 29 39 48 52 64 62 61 64 79 78 74 83 93 98 94 77 76 81 77 80 92 78 75 81 80 80 78 79 82 80 79 83 86 84 79
43 38 41 49 57 55 41 27 28 30 28 24 26 32 37 42 49 53 48 58 68 71 81 82 76 88 88 96 92 82 87 83 77 74 80 83 79 81 82 79 75 82 76 74 73 67 61 59 54
46 45 49 52 54 47 33 24 31 32 23 23 28 35 38 39 44 45 48 57 68 75 81 84 78 85 85 87 88 91 90 84 78 75 76 76 79 80 81 85 78 79 67 68 72 67 66 66 76
46 59 57 59 56 44 38 33 31 31 25 23 24 30 40 41 46 45 51 57 64 77 86 84 79 84 82 88 90 89 92 91 82 82 85 80 79 88 86 85 78 79 63 68 83 84 84 85 89
66 62 72 69 53 42 40 35 32 25 23 24 28 42 41 42 48 54 54 55 60 61 78 82 83 80 77 91 88 83 88 92 88 82 85 86 82 79 80 85 79 81 74 78 85 92 94 92 90
70 73 74 63 57 48 39 33 31 32 26 25 26 36 36 39 47 52 55 58 61 63 69 80 83 81 79 89 85 82 85 86 90 86 86 88 77 70 76 79 80 88 84 88 97 97 95 88 89
78 71 77 72 60 56 36 33 28 22 22 24 29 38 34 34 46 51 65 68 69 70 70 75 81 85 78 91 83 79 83 81 81 76 82 85 78 70 80 83 85 84 85 88 95 91 85 78 75
67 87 93 74 66 54 39 38 34 30 27 30 27 33 28 35 49 51 61 74 76 75 73 76 82 88 80 90 82 82 84 79 72 70 72 80 76 71 68 71 77 76 76 78 80 77 76 75 74
88 97 79 65 58 50 44 43 39 38 42 35 32 30 43 47 54 59 66 74 80 76 75 78 80 85 82 90 84 85 82 79 74 69 66 65 62 55 62 70 73 74 73 73 73 73 72 73 72
88 89 69 65 58 54 55 50 41 42 47 39 34 37 37 52 57 58 59 64 68 72 75 75 79 80 83 88 84 85 80 79 78 73 72 72 68 59 58 63 65 68 71 71 72 73 73 71 65
84 78 77 71 63 68 66 59 64 47 43 34 39 35 35 34 56 59 56 53 56 63 65 71 74 77 79 82 78 80 78 81 78 74 72 73 74 73 68 67 67 68 71 74 71 66 66 60 58
86 80 69 64 64 70 68 73 73 67 52 47 47 42 40 39 38 35 43 45 45 47 50 57 65 70 71 79 74 77 75 80 77 78 77 76 78 78 67 69 76 77 70 67 62 60 58 52 50
66 67 68 63 60 61 67 64 64 60 56 55 48 46 44 43 39 34 32 28 29 27 28 32 51 62 67 72 70 74 75 79 81 81 82 83 83 68 74 81 75 62 60 57 54 52 48 38 28
68 82 75 71 65 62 58 68 69 50 56 58 56 54 47 43 38 38 29 28 26 26 26 27 32 54 65 67 68 74 78 82 85 85 84 73 71 78 82 71 63 60 52 49 44 33 24 20 17
75 80 93 62 65 59 60 71 51 46 53 61 61 60 53 45 39 34 32 29 26 26 26 28 35 49 65 67 68 77 86 87 89 86 74 75 79 71 67 67 58 50 42 32 23 19 17 17 15
78 83 86 75 57 61 73 69 56 52 56 65 65 61 54 48 45 35 32 30 28 28 30 32 39 52 68 71 76 88 90 87 85 78 79 74 67 69 70 63 50 32 24 21 18 16 15 17 14
74 72 62 74 65 69 75 74 60 57 56 55 60 60 59 54 46 37 34 30 31 36 40 42 54 67 73 80 88 88 83 80 79 77 69 66 63 64 63 49 26 22 21 20 17 14 14 17 14
77 93 90 75 66 76 75 69 58 51 59 64 60 55 60 56 45 40 34 35 40 41 45 49 63 76 77 84 80 74 71 70 67 62 60 57 53 48 31 24 22 21 21 17 15 13 12 16 16
85 87 77 70 65 71 71 68 56 52 52 52 58 56 56 54 51 47 42 44 46 45 48 50 67 78 78 77 74 71 66 60 61 55 50 39 32 25 24 23 23 20 18 16 14 13 14 18 22
88 91 84 78 62 63 70 66 44 35 38 40 39 41 46 53 53 52 55 54 56 57 55 54 65 78 76 73 69 62 56 49 40 34 30 25 24 24 24 23 22 18 16 15 15 16 16 20 21
89 74 76 80 88 92 72 82 51 41 41 41 39 44 53 53 55 52 57 73 66 64 65 61 62 75 73 69 64 62 50 39 34 27 25 24 24 24 23 22 18 16 14 14 16 18 20 22 27
76 69 79 83 95 98 85 92 66 48 48 44 50 58 53 50 53 52 60 61 65 71 75 72 66 72 70 64 61 56 47 39 28 26 24 23 23 22 21 18 15 14 14 15 17 20 22 23 25
64 74 76 92 97 95 69 82 58 44 36 33 48 49 51 54 60 53 61 75 78 83 83 76 71 69 66 61 56 54 50 33 27 26 25 23 23 21 18 16 14 14 15 17 20 22 23 25 26
82 100 97 98 97 86 64 79 55 38 34 41 43 51 59 59 62 82 90 91 91 89 83 75 70 65 61 58 55 53 43 33 28 26 25 24 23 20 17 15 15 15 18 21 23 24 25 26 27
82 88 95 92 86 85 59 76 49 39 35 31 32 38 47 55 72 82 84 85 87 88 80 74 69 63 60 57 55 47 38 30 27 26 25 24 22 19 17 16 16 19 22 24 25 26 26 28 29
98 98 72 97 96 96 80 67 52 46 44 48 51 38 35 52 79 84 86 83 84 84 78 73 67 63 58 54 46 38 32 29 27 26 24 22 19 18 17 16 19 22 25 26 26 26 27 28 30
81 79 97 98 96 94 76 68 56 45 30 30 38 33 53 65 82 86 87 82 78 76 73 69 64 58 50 44 38 34 30 27 25 25 22 20 18 17 16 19 22 25 27 28 28 26 26 30 34
97 96 100 89 95 92 72 51 32 29 26 43 50 38 50 75 82 85 80 73 69 66 65 60 55 48 42 36 32 28 26 25 25 23 20 18 17 17 20 22 25 27 28 28 27 26 30 37 40
68 77 78 84 88 86 82 55 32 43 55 58 61 64 73 79 87 80 72 66 62 59 55 51 46 41 35 31 28 27 26 24 23 22 20 18 17 20 22 24 27 28 28 28 26 28 37 44 47
Wind_Speed
15 15 13 5 4 4 3 5 1 5 2 0 1 3 4 3 4 4 1 14 8 23 25 19 17 18 16 15 13 10 7 5 6 7 8 12 9 3 4 4 3 3 2 1 1 4 4 3 1
14 10 4 2 4 2 5 4 4 3 5 7 3 4 0 2 2 1 4 15 11 25 26 23 19 18 18 15 13 11 8 7 7 8 8 9 8 6 5 4 4 3 2 2 2 2 2 2 2
7 5 3 3 3 6 5 4 4 5 7 3 2 1 3 1 2 3 2 17 16 25 27 24 20 19 17 16 14 11 9 8 8 8 8 9 8 7 6 6 4 2 2 2 2 1 1 3 3
3 5 4 3 8 5 6 2 3 9 7 1 1 2 1 1 1 4 7 14 19 23 25 22 21 18 16 16 13 11 9 8 9 8 8 9 9 10 9 6 3 1 3 4 5 3 2 1 2
4 3 1 2 6 4 4 3 4 5 5 3 3 2 1 1 2 5 14 14 17 20 21 20 20 18 16 15 13 11 9 8 10 9 9 9 10 10 10 8 5 1 2 2 2 1 2 3 4
3 3 2 5 6 3 5 4 3 3 4 6 3 5 4 2 4 11 15 13 14 18 20 19 19 18 16 15 13 11 9 8 9 10 9 8 6 5 11 12 7 3 0 1 1 2 4 5 5
5 4 5 4 4 5 4 5 3 4 5 4 2 3 3 1 6 13 14 14 13 16 18 20 20 18 16 16 14 11 9 8 9 9 10 8 7 4 5 9 5 4 2 3 4 6 6 6 6
4 3 3 6 6 7 3 3 2 3 5 3 3 3 2 2 11 12 14 14 13 16 18 19 20 19 18 18 15 12 10 8 9 8 11 10 6 4 3 5 4 4 3 4 6 6 6 5 6
3 1 5 6 7 5 1 1 4 4 3 4 2 2 3 3 15 14 13 13 14 17 19 19 20 21 19 19 16 13 11 9 9 8 10 11 9 7 5 4 4 4 3 4 5 5 5 6 6
4 4 6 5 6 3 2 2 2 4 6 4 4 4 4 11 15 14 12 16 19 21 22 21 20 22 21 20 18 16 13 10 10 9 8 8 7 8 7 6 4 4 4 4 5 6 6 7 8
3 7 3 3 3 3 3 4 2 2 4 7 2 8 5 4 7 9 11 15 23 21 22 23 23 22 22 23 20 18 15 12 11 11 10 7 5 5 5 5 5 5 4 5 4 5 5 6 7
3 5 4 2 4 4 2 4 6 4 7 3 4 6 4 5 7 9 13 16 18 19 22 23 24 24 24 24 22 19 17 15 14 13 11 9 6 5 4 3 2 3 2 2 3 3 3 5 8
4 4 4 4 7 7 6 10 8 10 9 10 9 6 10 9 10 15 16 15 16 20 23 25 26 27 26 26 23 21 20 17 15 14 12 9 7 6 4 4 3 2 0 2 1 2 4 5 7
2 3 5 5 5 5 8 13 4 8 8 9 8 9 9 9 13 14 14 19 17 20 23 23 30 30 29 28 26 23 20 18 16 14 12 9 7 5 6 6 5 3 2 1 2 4 6 8 9
3 5 6 6 6 7 4 15 17 14 11 13 14 10 11 10 13 17 20 16 20 20 22 22 26 32 33 31 27 23 21 19 16 15 12 12 10 8 8 7 4 1 2 2 4 5 6 7 10
2 1 3 4 5 6 9 19 9 8 15 15 14 10 10 13 14 22 23 21 22 21 22 18 21 28 34 32 29 25 20 19 17 16 19 16 14 13 8 4 3 2 3 4 6 8 9 12 14
4 8 5 6 2 4 10 5 2 5 4 9 9 10 10 11 11 26 27 22 23 20 17 18 20 25 32 31 27 24 20 19 20 22 21 19 16 13 5 3 3 3 4 6 8 10 13 15 18
4 7 10 8 3 4 9 15 14 9 11 13 10 10 9 10 14 20 17 19 17 14 12 12 18 23 29 28 27 25 23 26 26 24 22 19 15 10 8 7 6 4 5 8 10 10 13 13 19
4 3 9 4 7 7 12 17 18 14 12 13 13 12 11 11 12 18 18 13 13 15 13 13 19 25 32 33 33 29 31 28 26 23 19 16 15 13 11 10 7 6 8 11 11 10 12 15 21
8 13 19 13 12 10 13 24 20 17 20 18 15 16 12 10 7 7 11 13 17 17 17 16 21 28 32 34 32 33 34 27 27 22 19 16 16 15 13 10 9 8 8 10 12 14 11 11 18
6 11 8 14 9 12 12 25 17 18 21 23 20 19 16 12 12 8 8 19 18 19 20 21 23 30 32 33 33 34 28 28 26 23 21 18 16 15 12 10 9 9 9 12 13 13 13 11 12
13 8 14 13 6 7 3 10 5 4 10 11 15 13 14 14 9 8 8 11 22 22 19 21 25 29 30 34 38 43 31 26 21 27 24 20 15 14 11 9 9 9 10 11 11 11 11 10 11
4 6 8 10 8 6 8 6 5 5 8 9 9 11 14 16 15 13 12 21 26 22 22 22 25 28 31 35 39 37 30 21 31 28 24 20 17 13 11 9 9 9 9 9 9 9 10 10 8
3 4 4 3 4 11 11 9 13 7 9 8 9 11 14 12 10 12 12 18 22 21 23 25 28 28 31 33 35 35 35 35 33 28 24 20 16 13 11 9 9 9 8 8 8 8 9 9 8
9 3 3 5 6 7 7 11 22 6 8 8 10 11 10 9 8 9 11 11 20 25 28 28 30 30 30 31 31 29 31 34 33 28 24 20 16 13 10 8 8 7 7 7 7 8 9 8 9
17 10 5 5 4 4 5 8 9 9 16 18 16 14 6 6 7 10 12 12 22 25 31 28 31 32 29 28 27 28 30 31 28 24 20 16 14 12 9 7 7 7 6 6 7 8 9 9 10
5 11 14 5 3 3 5 8 10 9 10 12 8 11 13 8 9 11 11 16 21 25 29 34 33 31 29 27 28 29 30 28 26 21 18 16 13 11 8 6 6 5 5 6 9 10 10 12 10
8 1 4 6 5 5 6 7 12 9 17 14 11 12 10 7 8 9 10 12 18 21 28 32 34 33 31 30 31 30 29 26 23 20 18 15 13 10 7 6 5 4 5 7 9 11 11 10 12
8 9 6 3 4 4 4 6 6 11 7 9 16 12 9 12 14 12 10 15 22 23 27 32 33 35 33 32 32 30 27 25 22 19 16 13 11 8 6 5 4 5 7 8 11 11 11 13 16
18 13 17 7 6 4 3 17 6 5 6 7 13 10 4 8 9 11 11 15 20 23 25 29 32 36 34 33 31 29 27 24 21 18 15 12 10 7 5 3 4 7 8 10 12 12 14 15 17
Wind_Direction
333 337 332 33 44 63 273 260 245 312 277 295 322 173 214 145 172 206 156 165 163 168 165 172 176 176 171 165 164 165 164 162 157 155 166 163 149 162 181 146 117 92 70 63 150 151 120 126 121
332 342 26 81 99 74 269 256 208 216 274 313 189 129 211 216 266 288 143 176 162 167 166 171 179 179 173 171 171 169 168 162 161 161 162 152 154 145 154 148 126 107 77 88 132 180 202 230 278
332 358 77 99 141 185 218 218 260 280 283 243 165 112 164 216 219 197 220 180 168 170 173 175 180 180 178 176 176 174 165 159 148 156 168 153 155 172 164 153 140 107 44 61 121 156 225 268 297
340 17 37 121 232 244 203 229 299 337 345 209 264 137 253 190 225 197 181 171 169 176 176 179 182 182 183 184 182 179 171 167 166 160 166 178 178 192 183 182 166 67 60 77 84 92 75 41 340
47 63 162 218 249 254 263 259 305 317 289 296 298 249 260 37 247 192 162 165 173 179 180 181 183 183 187 191 187 181 176 174 176 175 182 177 194 214 215 208 213 203 80 81 80 9 338 312 310
62 98 117 230 245 246 280 262 306 269 270 294 295 137 273 29 136 159 165 169 178 180 182 184 186 188 193 198 195 189 184 184 184 192 196 198 215 234 226 205 221 223 311 354 348 332 325 315 311
138 109 211 220 239 287 229 206 217 248 276 272 181 154 265 302 176 173 175 175 182 186 187 187 190 194 197 201 201 198 196 197 195 196 199 208 218 253 188 200 217 233 275 317 322 316 325 323 323
113 123 197 221 214 263 222 211 187 187 276 304 171 228 260 240 169 172 184 187 189 194 197 194 196 198 201 202 204 204 206 208 207 201 200 212 213 210 169 209 225 250 280 320 326 329 335 342 340
139 127 227 226 161 231 291 128 324 292 319 324 277 197 266 149 158 159 182 200 200 203 206 203 203 204 205 203 203 206 210 211 206 207 208 216 224 224 213 210 225 253 295 320 333 345 341 332 334
162 195 235 197 191 243 276 339 357 344 342 328 318 327 328 169 170 164 180 198 208 210 210 211 210 210 208 206 205 207 208 209 207 208 206 214 221 222 222 220 233 259 289 303 315 330 336 334 336
189 235 276 279 296 273 265 285 225 239 265 229 282 303 340 307 185 197 206 211 218 219 215 214 215 215 213 210 208 210 208 207 205 205 206 199 195 203 221 242 242 256 269 294 323 343 347 350 343
222 239 218 280 330 320 262 320 311 246 240 232 257 270 289 280 257 220 222 226 229 231 228 224 221 218 215 215 212 211 209 208 203 201 204 203 206 225 231 223 218 240 268 325 353 327 327 327 325
206 233 261 297 301 275 275 261 256 252 258 276 286 276 263 261 253 252 250 253 251 246 243 235 227 221 216 213 214 211 210 209 203 202 205 207 218 230 214 190 164 126 339 296 288 322 326 331 338
296 274 263 272 260 279 267 265 236 242 234 268 259 267 269 241 246 256 249 258 255 257 261 252 236 225 216 213 211 210 210 209 206 205 208 207 217 201 186 163 158 153 228 219 356 349 344 339 342
271 306 298 219 221 245 247 263 237 252 231 246 261 254 262 257 250 231 241 250 267 268 273 264 240 226 217 213 211 210 210 210 209 204 201 176 178 175 160 149 129 128 74 25 3 352 349 341 347
291 255 304 316 227 235 177 261 300 251 222 228 240 238 245 256 253 252 255 260 263 270 265 253 230 225 217 211 209 208 210 208 204 188 170 167 166 158 154 176 127 91 32 18 6 2 355 354 352
184 261 256 316 273 260 206 287 253 360 288 253 244 248 238 248 260 256 258 259 268 268 250 235 221 219 210 207 203 199 200 193 180 169 163 159 154 149 152 155 127 83 46 28 23 12 6 359 352
242 239 257 258 285 353 284 278 284 288 298 279 260 253 246 246 249 260 268 269 257 233 223 218 206 204 199 191 184 181 173 165 163 160 156 153 151 145 153 152 125 87 52 41 29 24 20 14 357
258 267 267 268 293 316 268 275 275 277 262 265 270 266 246 250 254 261 268 255 217 207 197 187 187 190 185 173 163 160 157 156 151 149 148 148 143 137 141 134 114 80 47 41 34 32 25 18 10
248 265 266 275 251 261 281 278 277 265 261 254 245 256 255 254 250 238 228 212 207 206 191 179 185 182 180 176 169 160 154 152 148 144 141 141 139 134 133 120 98 73 57 51 43 37 33 27 23
219 234 252 256 294 270 286 283 265 257 241 245 238 236 248 239 249 231 202 208 206 202 193 184 180 180 179 174 163 153 148 141 136 141 139 136 136 129 123 107 88 74 62 55 47 39 37 25 24
255 199 240 252 252 255 155 286 239 279 273 238 249 235 230 227 226 217 196 191 208 204 193 188 181 182 180 174 167 161 155 148 157 148 139 133 131 123 112 100 87 76 65 60 52 42 38 31 29
254 179 213 229 236 274 229 276 278 235 273 269 246 228 222 226 214 207 195 199 203 194 186 185 181 182 179 175 170 163 153 155 151 144 137 133 125 116 108 95 82 72 65 59 48 39 31 26 20
197 236 266 274 230 248 220 206 263 231 232 230 238 230 228 229 203 205 190 176 176 182 177 177 174 176 177 177 174 173 165 153 146 144 137 131 124 115 103 91 81 75 66 53 39 27 13 9 3
195 166 218 225 211 250 195 205 247 261 270 256 252 256 236 230 199 170 162 159 160 171 173 174 174 169 172 177 176 172 162 158 154 149 142 137 126 115 103 95 87 74 57 40 23 11 2 353 345
199 201 222 235 230 256 195 235 250 214 238 254 246 255 268 246 183 181 180 170 167 168 168 169 169 164 170 170 166 165 159 153 147 145 140 132 126 117 111 99 82 66 47 24 9 359 350 338 330
167 213 221 264 199 240 239 286 285 250 247 262 254 249 249 209 184 186 177 170 164 165 165 166 164 160 162 160 155 152 150 148 144 140 136 130 123 119 114 98 77 53 25 3 355 347 338 330 328
210 251 177 201 228 234 248 260 250 314 306 286 271 250 234 199 179 170 169 162 153 155 155 161 164 157 154 152 150 147 147 145 140 137 132 129 124 119 109 91 60 31 6 351 343 337 335 329 329
198 223 218 261 200 201 261 257 215 230 273 294 311 282 224 191 178 166 157 148 133 140 146 150 155 150 149 149 146 144 140 138 135 133 130 127 122 114 105 81 42 6 353 344 339 338 338 330 327
215 221 214 216 202 231 206 264 218 252 219 358 332 289 232 165 149 139 134 132 135 135 139 143 147 147 149 147 145 140 138 136 134 131 128 124 120 113 96 61 11 353 345 345 343 340 335 330 324